Lid_Strength_Index
1 1 1 1 1 1 1 1 1 2 1 2 2 2 2 2 3 4 4 3 4 7 7 6 6 6 7 6 8 7 7 7 8 10 9 10 10 9 10 9 10 10 11 12 12 13 14 6 6 9 7 6 6 6
1 1 1 0 0 0 0 1 1 1 1 1 1 2 3 2 3 3 5 2 2 6 6 5 4 4 5 4 5 6 7 8 7 9 9 8 10 9 10 11 8 11 9 10 10 10 7 6 6 6 6 6 6 6
1 1 0 0 0 0 0 1 1 1 1 1 1 2 3 2 3 2 4 4 4 6 6 6 6 4 4 4 3 7 5 5 6 5 8 8 10 8 11 11 10 9 7 9 9 8 7 6 6 6 6 6 6 5
1 1 0 0 0 0 0 1 1 1 1 1 1 1 2 2 3 3 4 5 6 6 8 7 4 4 3 3 3 3 5 3 4 4 8 9 9 7 9 9 9 7 7 9 9 7 7 7 6 6 6 6 6 5
1 1 0 0 0 0 0 0 1 1 1 1 1 1 2 2 2 3 4 5 5 8 9 8 5 4 3 4 4 4 5 6 5 7 8 9 7 8 8 7 9 7 8 9 8 6 6 6 6 5 6 6 5 5
1 1 1 0 0 0 0 0 0 1 1 1 1 1 2 2 2 4 6 4 4 5 7 9 5 5 3 3 5 5 5 5 5 7 7 6 6 7 10 11 7 5 5 5 6 5 6 5 5 5 5 5 4 5
1 0 0 0 1 1 0 0 1 1 1 1 1 1 1 2 2 5 6 5 5 5 7 8 8 5 3 3 4 5 5 4 5 6 7 6 7 7 9 10 6 5 5 6 5 6 7 6 6 5 4 4 5 5
1 1 0 0 0 0 0 0 1 1 1 1 0 1 1 2 2 5 2 3 4 6 5 9 9 6 3 7 7 4 6 5 6 6 6 7 7 7 10 7 6 5 5 6 5 5 5 5 5 5 4 4 6 6
1 0 0 0 0 1 0 0 0 0 1 0 0 0 1 3 5 4 2 2 3 5 8 8 10 11 4 6 5 6 5 8 5 8 7 7 8 10 8 7 6 5 5 5 5 5 6 6 6 6 5 4 6 6
1 0 0 0 -0 0 1 0 0 1 1 0 1 4 6 3 2 2 3 6 6 6 7 9 6 9 6 7 7 7 6 8 10 7 6 8 8 6 6 5 4 4 5 5 6 7 6 6 6 6 5 4 5 5
0 0 0 0 -0 -0 0 0 0 1 1 3 5 5 2 2 2 5 8 9 8 9 8 7 7 8 5 9 9 6 9 8 10 9 9 9 9 6 5 5 4 4 5 4 3 3 3 4 5 6 4 4 5 4
0 0 0 -0 -0 -0 -1 -1 0 2 2 2 2 2 2 4 6 9 11 10 9 10 7 8 7 6 5 5 8 7 9 8 11 7 9 10 8 5 5 5 4 5 5 4 3 3 3 4 4 4 4 5 4 4
-0 0 0 -0 -0 -1 -0 -0 0 1 0 1 3 5 6 6 11 12 13 12 11 8 7 7 8 6 6 5 7 8 10 10 7 10 10 8 6 5 5 4 5 5 5 4 4 4 4 4 3 3 4 4 3 3
-0 0 0 -0 -1 -0 -0 -0 0 0 1 5 7 10 10 11 10 10 9 9 8 7 7 6 7 7 6 8 8 11 8 8 11 12 11 8 6 5 5 4 5 6 5 4 5 5 4 3 4 3 3 3 4 4
0 0 -0 -0 -0 -0 -0 0 -0 -0 3 8 7 11 10 7 7 7 7 8 6 6 6 7 7 7 8 8 8 9 11 12 11 10 8 6 5 5 5 4 4 5 5 4 5 5 3 3 4 4 3 3 3 3
0 0 0 -0 -0 -0 -0 0 1 1 4 6 7 9 8 9 9 7 7 8 5 6 5 6 8 9 9 8 11 11 11 12 9 8 6 5 5 5 4 4 4 4 4 5 4 3 3 3 4 3 3 4 3 3
1 2 0 -0 -0 0 1 1 2 6 7 7 9 7 8 8 9 9 8 7 6 6 9 8 10 9 8 10 11 9 10 7 7 6 5 4 5 4 4 4 4 4 4 4 4 3 3 3 3 4 4 4 3 2
2 0 -0 -0 0 1 1 1 4 7 9 7 8 8 7 7 8 8 8 7 7 8 7 8 7 10 11 11 10 8 6 6 6 5 5 4 4 4 3 3 4 4 4 4 3 3 3 3 4 4 4 4 3 3
0 0 -0 0 1 2 4 5 5 9 8 6 7 6 7 7 7 7 7 7 7 6 7 7 9 10 10 8 7 6 6 6 6 5 4 4 3 3 3 4 4 4 4 4 4 3 3 3 3 4 4 4 4 4
-0 0 0 0 0 3 7 7 4 7 9 7 6 7 6 6 6 6 7 7 6 6 8 9 8 7 7 5 5 5 5 5 5 6 5 4 3 3 4 4 5 4 5 4 4 6 4 4 4 4 4 4 4 5
0 1 1 0 2 3 5 7 7 7 6 8 6 6 7 6 7 7 7 6 7 7 8 6 6 5 4 4 3 3 4 4 4 4 5 5 4 4 4 5 4 4 4 4 4 5 5 4 4 4 4 4 3 3
1 1 2 1 4 5 5 4 6 5 7 7 7 6 7 8 7 7 6 7 7 6 6 5 5 4 4 4 4 3 3 3 3 5 7 7 5 5 5 5 4 4 4 3 4 3 3 4 4 4 4 4 5 4
1 1 2 3 6 8 8 4 8 7 9 8 7 8 8 8 6 4 7 6 6 4 4 4 4 4 4 4 3 3 3 3 4 3 5 4 4 4 5 4 4 4 4 4 3 3 4 8 6 4 4 5 5 5
1 4 6 7 8 9 7 8 7 7 7 9 9 9 8 7 6 8 8 7 5 4 4 4 4 5 4 4 5 4 3 3 4 4 4 4 5 5 4 4 3 3 3 3 4 4 5 5 7 5 4 4 4 5
7 8 7 10 8 9 9 9 9 9 10 10 9 9 8 6 9 9 9 7 6 6 5 4 4 4 5 5 4 4 3 4 5 5 4 4 4 4 4 4 3 3 3 3 4 4 4 4 4 4 4 4 5 4
11 8 9 9 9 10 10 10 9 9 9 10 9 7 7 9 10 10 9 7 6 5 5 5 5 5 5 4 4 4 5 4 4 5 4 4 4 4 4 5 5 4 2 2 3 4 4 4 4 4 5 5 10 4
11 10 8 6 6 7 8 7 7 8 9 10 9 8 10 12 11 8 6 5 5 4 3 3 4 4 4 4 3 4 3 3 3 4 3 3 2 2 2 3 3 3 2 2 3 3 4 4 4 4 4 3 3 3
8 7 10 7 8 7 9 9 9 10 9 7 8 11 11 10 11 6 5 4 3 3 3 3 2 3 3 2 3 3 3 3 4 3 3 3 2 2 1 2 1 10 2 2 2 2 3 3 3 3 3 3 3 2
9 6 7 9 8 8 9 9 9 7 5 6 9 10 9 6 6 5 4 3 2 3 4 4 3 3 4 3 3 3 3 4 4 5 4 4 4 3 2 2 2 2 2 3 12 6 3 3 3 3 2 2 2 2
9 7 10 10 10 10 8 7 7 5 4 5 5 5 6 5 4 3 3 3 4 4 3 3 3 3 4 4 4 4 3 2 2 3 4 4 3 3 2 2 2 2 2 2 3 5 12 5 6 2 3 3 2 2
9 10 11 11 12 10 8 7 7 6 5 5 5 6 7 6 4 2 3 3 3 3 3 4 3 3 3 3 4 4 4 2 1 1 1 2 2 2 2 1 1 2 2 2 2 2 3 3 3 3 3 3 3 4
11 12 12 14 13 10 9 9 8 7 7 7 7 6 6 6 7 5 3 2 3 4 8 4 4 3 2 2 1 1 7 2 2 2 2 2 2 2 2 2 2 2 2 2 3 3 3 3 3 3 4 4 3 3
11 11 12 13 11 9 7 7 8 8 8 8 8 6 6 7 8 5 3 4 3 3 3 3 3 2 2 1 2 2 4 2 5 11 10 10 9 6 3 2 2 2 3 3 3 3 3 3 4 3 3 3 4 4